Content
SEND FEEDBACK

Daily
Averages
Monthly
Summary
United States of America

BROOKLYN, NEW YORK


Home > North America > United States > New York
Elevation: 2 feet     Latitude: 40 36N     Longitude: 073 59W

WEATHER
 
SELECT A DAY
Number of Records: 187,574;   Date Range: 1/1/95 - 9/30/14
 
SHARE

PRINT THIS DATA

[ ← Previous Day ]
WEATHER ALMANAC - APRIL 1, 2013
[ Next Day → ]
[ °C ]   °F
Weather ElementAverageHighLow
Temperature48.3 °F62.1 °F (2:51 pm)39 °F (11:51 pm)
Dewpoint37 °F45 °F (12:51 am)8.1 °F (10:51 pm)
Humidity69.6 %96 % (12:51 am)26 % (10:51 pm)
Barometer29.73 in29.91 in (11:51 pm)29.63 in (2:51 pm)
Wind Speed13.7 mph26.5 mph (3:51 pm)
Wind Gust40.3 mph (4:51 pm)
Weather ElementAverage
Visibility8.3 mi
Wind DirectionWSW (263.7 °)

Weather ElementTotal
Precipitation---
Heating Degree Days14.5 (Base 65)
Growing Degree Days0.5 (Base 50)
Averaged from 27 records on April 1, 2013
WEATHER CONDITIONS BREAKOUT
WIND DIRECTION BREAKOUT
WEATHER BY HOUR - APRIL 1, 2013
[ °C ]   °F
Local TimeTemperatureDewpointHumidityBarometerVisibilityWind DirectionWind SpeedGust SpeedPrecipitationEventsConditions
12:51 AM46.0 °F45.0 °F96 %29.69 in4.0 miWest (270°)6.9 mph0.00 inOvercast
12:54 AM46.4 °F44.6 °F93 %29.68 in4.0 miWest (270°)9.2 mphOvercast
1:51 AM46.0 °F44.1 °F93 %29.69 in7.0 miWest (260°)11.5 mphOvercast
2:11 AM46.4 °F44.6 °F93 %29.70 in9.0 miWest (260°)13.8 mphOvercast
2:51 AM46.0 °F44.1 °F93 %29.71 in6.0 miWSW (240°)10.4 mphOvercast
3:26 AM44.6 °F42.8 °F93 %29.71 in10.0 miWest (270°)8.1 mphScattered Clouds
3:51 AM45.0 °F42.1 °F90 %29.71 in10.0 miWest (270°)11.5 mphScattered Clouds
4:51 AM44.1 °F42.1 °F93 %29.72 in10.0 miWSW (250°)8.1 mphScattered Clouds
5:51 AM44.1 °F42.1 °F93 %29.73 in7.0 miWest (260°)9.2 mphScattered Clouds
6:51 AM44.1 °F42.1 °F93 %29.72 in6.0 miWest (260°)6.9 mphScattered Clouds
7:51 AM46.0 °F43.0 °F89 %29.72 in6.0 miSW (220°)8.1 mphScattered Clouds
8:51 AM46.0 °F44.1 °F93 %29.73 in4.0 miSW (230°)11.5 mphPartly Cloudy
9:51 AM48.9 °F45.0 °F86 %29.71 in5.0 miSW (230°)12.7 mphMostly Cloudy
10:51 AM52.0 °F43.0 °F71 %29.71 in7.0 miSSW (210°)12.7 mphMostly Cloudy
11:51 AM55.9 °F43.0 °F62 %29.70 in9.0 miSSW (200°)13.8 mphMostly Cloudy
12:51 PM57.9 °F44.1 °F60 %29.67 in10.0 miSouth (190°)12.7 mphScattered Clouds
1:51 PM57.9 °F39.9 °F51 %29.65 in10.0 miSouth (180°)15.0 mph25.3 mphMostly Cloudy
2:51 PM62.1 °F37.9 °F41 %29.63 in10.0 miWSW (240°)20.7 mph27.6 mphMostly Cloudy
3:51 PM62.1 °F36.0 °F38 %29.63 in10.0 miWest (270°)26.5 mph34.5 mphMostly Cloudy
4:51 PM55.0 °F34.0 °F45 %29.68 in10.0 miWNW (300°)21.9 mph40.3 mphMostly Cloudy
5:51 PM46.0 °F37.9 °F73 %29.74 in10.0 miNW (320°)17.3 mph26.5 mph0.00 inRainLight Rain
6:51 PM46.9 °F32.0 °F56 %29.75 in10.0 miNW (320°)10.4 mph0.00 inMostly Cloudy
7:51 PM46.0 °F30.9 °F56 %29.77 in10.0 miNW (310°)8.1 mphScattered Clouds
8:51 PM46.9 °F24.1 °F41 %29.81 in10.0 miNNW (330°)21.9 mph28.8 mphPartly Cloudy
9:51 PM42.1 °F14.0 °F32 %29.86 in10.0 miNNW (330°)19.6 mph27.6 mphPartly Cloudy
10:51 PM41.0 °F8.1 °F26 %29.90 in10.0 miNW (310°)19.6 mphPartly Cloudy
11:51 PM39.0 °F8.1 °F28 %29.91 in10.0 miNW (320°)23.0 mph31.1 mphClear
Hourly data recorded from KJFK, located miles away from Brooklyn, New York







STORIES FROM OUR PARTNERS